Location: Haliburton Scout Reserve
(45.0900°N, 78.3200°W)
Time: 02:26:50
(UTC-04:00)

NANOSAT C BR1 - Pass Details

Date: 21 May 2022
Orbit: 583 x 601 km, 98.0° (Epoch: 27 June)

Event Time Altitude Azimuth Distance (km) Brightness Sun altitude
Rises 02:23:16 0° 27° (NNE) 2,821 ? -22.6°
Reaches altitude 10° 02:25:53 10° 44° (NE) 1,913 ? -22.5°
Maximum altitude 02:29:03 21° 94° (E) 1,339 ? -22.3°
Enters shadow 02:30:20 18° 119° (ESE) 1,447 ? -22.2°
